Wind_Speed
8 8 8 8 7 7 7 7 7 6 6 6 6 5 5 5 5 5 5 5 5 5 5 6 7 7 8 9 9 10 11 12 14 15 13 10 6 2 5 4 5 6 6 5 3 0 2 1 1 0 1 1 1 1 1 1 3 1 2 3 1 3 3 4 6 3 1 4 6 9 6 2 5 7 6 6 8 12 16 21 22 19 21 22 21 20 19 19
9 8 8 8 8 8 7 7 7 6 6 6 6 6 6 6 6 6 6 7 7 7 7 7 8 8 9 9 10 11 12 13 15 10 5 3 5 9 7 6 7 7 6 4 3 1 3 3 2 1 2 2 2 0 2 2 4 3 3 2 3 5 5 5 5 4 2 4 8 8 6 4 8 10 8 4 8 12 12 21 27 25 25 22 18 17 17 18
10 9 9 9 8 8 8 7 7 7 7 7 7 7 7 7 7 7 8 8 8 9 9 9 9 9 10 10 11 12 13 16 11 2 7 7 8 7 5 7 8 8 7 5 3 2 6 4 1 0 0 0 0 1 2 3 4 3 3 2 6 7 5 8 10 10 7 7 8 9 8 9 14 13 7 4 9 11 10 17 23 26 28 24 20 18 19 20
11 10 10 10 9 9 9 8 8 8 8 8 8 8 9 9 9 9 9 9 10 10 10 10 10 11 11 11 12 12 14 14 3 6 5 3 3 4 7 8 9 10 9 5 3 3 6 5 2 2 3 1 2 3 3 5 5 3 4 4 6 4 3 10 13 12 11 10 11 13 11 12 17 14 9 7 7 9 13 19 21 25 32 30 26 24 23 22
12 11 11 11 10 10 10 9 9 9 9 9 10 10 10 10 10 10 10 10 11 11 11 11 11 11 11 12 12 12 12 7 2 5 2 2 4 9 10 10 10 10 9 4 2 4 6 6 4 4 4 2 2 2 4 7 7 3 5 8 8 4 3 10 12 11 14 15 16 14 9 10 14 13 12 8 6 11 20 26 26 28 31 29 27 25 24 24
13 12 12 12 12 11 11 10 10 10 10 10 10 11 10 11 11 11 11 11 11 11 11 12 12 12 12 12 13 13 8 2 3 4 5 7 11 11 9 10 10 9 6 3 3 5 6 7 6 6 5 2 3 4 4 6 7 4 5 7 11 11 8 13 14 12 16 15 14 12 10 13 13 14 15 11 17 24 29 29 27 27 25 23 23 21 21 22
14 13 13 13 13 12 12 12 12 11 11 11 11 11 11 12 11 12 12 12 12 12 12 13 13 13 13 13 13 12 9 10 10 9 11 13 12 9 7 9 8 6 3 3 4 5 7 8 9 7 4 1 3 6 5 4 7 6 5 6 10 11 10 14 14 15 18 17 18 17 16 16 11 12 13 19 30 32 27 24 22 22 22 21 20 19 20 20
14 14 13 13 13 13 13 13 12 12 12 12 12 12 12 12 12 12 13 12 13 12 13 14 14 13 13 12 11 9 11 13 10 8 11 11 9 7 7 8 5 4 2 4 5 6 7 8 9 6 3 2 3 5 3 4 4 6 5 5 7 8 10 14 15 19 22 22 23 19 17 19 18 15 13 25 32 23 18 19 19 20 21 21 21 21 20 19
14 13 13 13 13 13 13 13 12 12 12 12 12 13 13 13 13 13 13 13 13 13 13 14 13 13 12 11 9 7 10 10 6 5 7 7 8 7 8 8 5 4 3 5 6 8 8 7 8 6 5 4 4 3 1 1 2 4 4 4 6 10 13 15 17 23 23 22 21 13 16 23 21 13 11 23 22 14 16 18 18 20 22 21 20 18 16 15
13 13 13 13 13 13 13 13 12 12 12 13 13 13 13 13 13 13 13 13 13 12 13 13 13 12 11 11 7 4 7 7 5 6 5 6 7 7 9 8 6 5 5 7 8 10 9 7 6 5 5 4 3 3 1 1 2 3 4 7 9 13 17 15 17 27 24 22 19 9 12 20 14 4 7 18 13 13 20 19 19 21 20 17 16 13 11 12
13 13 13 13 13 13 13 13 13 13 13 13 13 13 13 13 13 12 12 12 12 12 12 12 12 12 12 11 9 8 9 9 8 8 8 8 8 9 9 9 9 9 9 9 10 11 11 10 7 4 4 3 2 3 3 2 3 5 7 9 12 13 18 18 17 23 17 12 12 6 7 13 5 2 11 17 13 15 22 22 21 18 15 13 11 9 10 11
14 14 14 14 14 14 14 14 14 13 13 13 13 12 12 12 12 12 12 12 11 11 11 11 11 11 11 12 14 14 13 12 11 11 11 10 10 11 11 12 13 13 11 10 11 12 12 11 9 6 5 3 1 2 3 3 6 8 7 6 10 9 12 18 14 13 6 4 6 3 3 9 1 8 16 17 16 17 22 25 20 15 13 10 8 8 9 9
16 16 16 16 15 15 14 14 14 13 13 12 12 12 11 11 11 11 11 11 10 10 10 10 10 10 10 11 13 13 11 12 12 11 12 13 13 13 14 14 13 11 9 10 11 12 13 11 9 8 7 4 2 1 3 6 8 9 5 1 6 6 6 12 6 3 3 5 6 6 1 7 5 14 17 15 17 19 23 22 15 13 11 9 7 6 5 4
17 17 17 16 16 15 14 14 13 13 12 12 11 11 11 11 10 10 10 10 9 9 9 9 9 9 10 11 11 12 12 12 12 12 13 14 14 14 13 12 10 9 8 9 11 11 11 10 9 8 7 6 4 2 4 6 4 4 2 1 3 2 5 9 5 1 3 6 6 8 2 7 8 15 16 14 17 18 21 16 13 11 9 8 5 5 4 3
17 17 16 16 15 15 14 14 13 12 12 11 11 10 10 10 10 9 9 9 9 9 9 9 9 8 9 11 12 12 12 13 13 13 12 13 13 11 9 8 7 7 8 9 10 11 10 8 7 6 5 6 3 2 3 4 3 2 1 3 3 2 4 11 10 4 3 4 4 8 2 6 8 13 15 17 20 19 17 13 13 9 7 7 5 7 7 6
17 17 16 16 15 14 14 13 12 12 11 10 9 9 9 9 9 9 9 9 9 9 10 9 9 8 7 9 10 10 10 10 10 10 10 11 10 8 5 5 5 6 8 9 9 10 9 7 5 4 4 3 1 4 4 4 4 3 1 4 3 4 3 6 9 3 4 1 2 4 2 4 6 11 17 23 25 22 17 12 10 8 8 8 8 9 8 7
17 16 16 15 15 14 13 12 11 10 9 8 8 8 8 9 9 9 9 9 10 11 10 8 8 8 8 10 9 8 8 7 7 7 9 9 8 6 4 4 5 6 7 8 8 7 7 5 4 3 2 0 3 5 3 3 4 3 1 3 4 4 3 3 7 6 3 3 1 2 2 6 8 13 23 27 23 22 17 9 8 9 9 10 11 10 9 9
16 16 15 15 14 13 12 11 10 9 8 8 8 8 7 8 8 9 10 11 10 8 7 9 7 3 8 13 10 7 7 7 8 8 8 7 6 5 5 4 4 6 7 6 6 6 5 3 4 1 2 2 2 5 2 4 5 5 4 3 4 3 4 5 5 5 6 6 4 5 5 8 9 13 22 23 17 18 13 6 9 10 12 12 13 13 14 13
16 15 15 14 13 12 11 10 9 8 8 7 7 6 6 8 8 10 12 12 9 5 3 7 10 4 3 7 7 6 6 7 9 10 9 9 7 7 6 5 5 7 6 4 4 6 7 4 4 1 1 3 5 7 9 9 8 7 6 4 4 4 5 6 6 6 4 4 5 6 6 7 8 10 16 18 13 12 7 8 12 13 16 16 17 18 17 17
16 15 14 13 12 12 11 10 9 8 7 6 6 5 6 6 4 6 10 13 13 11 8 8 12 12 7 5 6 8 7 8 10 12 11 10 10 8 7 6 6 5 4 4 3 4 7 4 2 5 7 9 10 11 11 7 4 3 3 2 4 5 6 5 6 7 1 1 6 5 3 6 9 9 10 14 11 11 7 12 15 16 18 19 20 20 19 19
15 14 13 13 12 11 10 9 8 8 7 6 5 4 5 5 3 3 6 10 14 16 16 15 16 18 17 14 12 11 9 8 11 13 12 12 11 8 8 8 5 2 3 4 4 2 5 4 7 10 11 11 10 9 7 4 2 2 3 4 5 5 6 7 6 6 2 0 5 3 3 8 10 6 8 12 11 12 10 13 16 17 19 19 20 20 20 19
14 13 13 12 11 10 9 9 8 8 6 6 6 5 6 6 6 6 6 8 14 17 18 19 20 23 23 21 19 18 14 10 11 14 13 13 13 10 9 8 4 3 3 4 5 2 3 4 11 14 10 7 5 3 5 4 3 3 2 2 4 4 4 6 5 4 2 1 5 4 4 8 8 3 8 11 11 11 12 14 15 17 19 18 19 19 20 20
14 13 13 12 11 10 9 9 9 8 6 6 6 6 6 7 6 6 5 6 12 16 16 19 22 24 25 23 21 21 18 14 12 15 15 15 16 13 11 9 5 4 4 5 6 5 4 6 13 13 6 4 5 4 5 3 2 3 4 3 5 4 1 4 5 4 3 1 3 3 4 7 3 4 7 10 13 14 16 18 17 18 20 18 18 19 20 22
14 14 13 12 11 10 10 9 9 8 7 7 7 7 6 6 5 5 5 4 7 10 13 17 18 19 21 20 18 18 18 15 11 12 16 18 16 12 10 10 7 4 5 8 9 7 7 8 6 4 6 7 6 6 4 4 2 4 6 6 6 5 5 5 3 4 4 4 2 3 5 5 1 3 3 6 11 12 13 17 18 18 19 19 19 20 21 23
15 15 14 13 11 11 11 10 9 8 8 8 7 7 5 4 4 2 3 2 4 6 8 11 11 11 14 15 14 14 13 12 10 10 15 20 18 9 5 9 8 5 7 7 6 6 9 9 2 4 4 6 5 6 4 6 3 4 5 9 9 7 6 4 2 4 4 4 3 4 4 5 4 1 4 4 5 6 8 12 14 14 16 18 19 20 20 22
17 16 15 14 12 12 12 10 10 9 8 8 7 6 5 4 2 2 2 2 3 5 3 5 7 7 9 9 11 11 5 6 10 12 15 19 18 9 3 5 5 4 6 5 3 2 6 8 5 5 4 6 5 6 5 7 4 3 5 7 7 5 4 3 2 3 1 3 3 3 1 5 6 4 5 5 4 4 5 8 10 12 15 16 17 18 19 21
17 17 16 15 14 13 11 9 10 11 8 8 8 7 5 4 3 2 3 3 3 4 5 4 5 5 6 9 14 11 2 4 8 11 16 17 15 10 4 3 2 3 3 4 1 3 4 3 3 6 5 5 5 5 6 8 7 3 4 5 7 6 5 4 4 2 3 2 4 3 2 3 5 5 5 7 6 4 4 5 7 10 13 14 15 17 18 20
17 17 16 16 15 14 11 9 11 12 9 7 8 8 6 5 4 3 4 1 3 3 4 3 4 5 6 11 14 8 4 8 7 7 14 15 12 8 4 5 5 4 2 5 3 4 1 2 4 7 5 5 6 4 6 10 5 6 5 6 6 6 6 5 5 2 1 1 5 4 1 2 5 5 2 5 5 3 4 4 4 8 10 13 14 16 18 20
18 17 16 15 14 13 12 12 12 12 10 9 9 8 6 6 4 4 3 2 1 2 2 3 4 5 7 10 8 4 5 5 2 7 13 11 11 6 2 5 6 3 2 3 5 5 0 1 4 7 5 6 5 2 5 8 4 4 5 5 4 4 4 4 5 3 2 1 5 6 3 2 5 6 2 2 4 5 5 4 4 8 9 11 13 15 17 20
19 18 17 15 15 15 15 15 14 12 11 11 11 9 7 7 4 3 4 3 0 2 3 4 3 5 7 6 2 2 4 2 3 9 8 6 9 5 2 4 3 3 1 2 2 4 2 1 1 3 4 5 4 3 1 3 5 6 6 5 5 5 4 4 2 4 2 3 6 8 9 5 3 5 3 2 3 4 8 5 5 8 10 12 14 15 18 20
20 20 19 19 20 19 18 19 16 14 14 14 13 10 7 4 3 3 7 1 2 1 3 2 2 4 7 5 3 3 2 1 4 8 4 2 5 2 3 3 2 3 3 4 3 5 5 1 2 2 3 4 6 4 3 4 4 6 5 4 3 4 4 4 4 3 1 5 6 5 6 5 4 4 3 2 5 2 7 9 8 10 12 14 15 16 18 20
21 21 21 22 23 21 21 20 15 15 17 16 14 11 6 2 2 4 3 2 1 2 3 3 2 3 5 2 2 4 2 1 4 5 3 3 3 3 3 4 4 2 2 3 2 4 3 4 4 2 2 4 6 3 2 5 5 5 4 5 4 2 3 3 3 0 3 6 4 2 4 2 5 4 3 4 7 7 3 12 15 16 17 17 17 18 19 20
23 23 23 24 24 24 24 22 17 17 19 18 15 10 4 3 4 4 3 1 2 2 2 2 2 4 5 3 2 3 2 2 4 3 2 3 2 4 4 3 5 2 0 4 1 1 3 5 2 1 3 5 7 4 2 1 1 4 5 5 4 2 1 3 4 1 3 5 2 2 3 2 4 2 4 4 6 5 7 16 19 20 21 20 20 19 20 20
24 24 25 25 27 28 26 23 19 18 20 21 15 7 3 5 3 3 5 4 1 0 1 3 3 3 4 3 3 3 2 2 4 4 1 3 1 3 4 4 4 2 2 3 1 3 2 5 3 4 2 6 8 6 5 5 3 4 4 5 4 4 4 4 4 3 4 4 3 1 1 2 3 1 3 3 5 9 14 19 19 20 21 21 20 20 20 20
24 24 25 25 27 28 26 23 21 19 25 24 12 4 6 5 2 2 4 4 1 0 2 2 4 3 2 2 3 3 4 3 3 4 2 3 3 3 3 4 5 4 3 2 2 2 3 5 6 2 1 7 7 4 6 6 2 2 3 5 2 4 5 2 3 5 3 3 3 2 2 3 3 1 2 4 7 10 13 16 18 18 18 19 20 20 19 18
21 21 22 23 26 26 25 24 21 22 28 22 7 5 7 3 3 4 2 2 3 3 3 1 3 3 3 2 2 3 2 1 3 3 2 3 3 4 4 4 6 8 6 4 3 2 2 4 5 2 0 5 6 5 5 4 2 2 3 3 4 4 6 3 2 0 3 1 4 2 2 2 0 1 0 3 5 5 8 10 14 16 16 18 19 19 18 16
19 19 20 22 24 23 24 22 18 24 28 17 5 6 5 2 4 4 1 2 3 4 5 2 2 4 4 2 3 4 2 1 2 3 2 3 3 5 5 3 4 10 11 7 2 3 4 3 5 1 2 4 3 3 2 2 3 5 3 5 3 1 4 4 1 2 2 2 4 1 3 3 1 2 1 2 3 3 3 5 9 12 14 17 18 18 17 14
20 20 18 20 20 19 20 18 18 26 24 11 7 8 3 3 5 4 2 3 2 3 4 4 4 4 4 3 3 3 4 3 3 3 3 2 3 4 5 3 1 5 10 7 1 2 4 1 6 1 3 2 1 2 1 4 3 4 3 3 3 2 1 1 2 2 1 3 4 4 4 3 4 4 3 6 9 7 5 6 7 10 14 17 18 18 16 13
20 18 14 16 19 18 19 18 21 27 17 5 9 8 3 4 5 7 7 3 2 2 3 4 3 2 3 4 3 3 5 5 5 4 3 3 3 2 4 3 2 1 3 6 4 1 3 2 4 2 1 1 3 2 3 2 2 3 1 1 1 2 3 2 2 3 3 3 4 5 5 4 5 5 7 10 10 10 8 7 7 12 17 19 19 17 15 12
16 11 7 14 19 19 19 19 22 21 10 4 7 5 3 4 5 10 11 5 2 2 2 3 2 2 3 3 2 3 4 5 6 4 3 3 3 2 1 2 2 2 2 4 4 0 2 2 3 3 2 0 1 2 5 5 2 2 1 2 1 1 1 1 1 2 3 3 3 4 5 5 4 3 6 8 8 11 12 10 10 16 21 21 18 16 14 11
12 6 3 10 16 18 21 18 14 10 4 3 4 2 3 4 5 8 10 8 5 2 2 4 4 3 2 2 2 1 1 1 3 3 2 3 1 1 2 1 3 2 2 3 3 1 2 2 2 2 0 2 4 3 4 6 5 5 4 4 4 2 2 2 4 1 2 3 4 3 5 6 4 2 3 5 7 12 16 15 14 20 24 22 18 15 13 12
13 4 3 10 14 19 21 12 6 5 3 3 3 3 4 5 5 7 8 7 5 3 3 3 3 3 2 3 2 2 2 1 2 3 2 3 2 0 1 1 0 2 3 2 2 1 2 3 2 3 3 4 4 3 1 2 4 5 2 2 3 3 4 4 5 3 1 2 2 2 4 4 2 2 2 3 9 15 19 19 19 23 24 21 17 15 13 12
13 6 7 12 16 22 18 6 4 5 4 2 1 2 4 4 4 6 7 6 4 3 4 3 4 5 4 4 2 2 3 2 3 4 2 3 3 1 1 1 1 2 3 2 1 1 3 3 1 3 3 3 4 5 4 4 4 2 1 1 3 2 3 4 4 2 2 3 1 1 4 3 1 2 2 2 7 12 18 22 22 22 23 20 16 15 15 14
13 9 8 10 16 22 15 4 5 7 6 4 3 4 5 3 5 6 5 6 5 4 3 3 5 6 5 4 4 5 5 3 3 5 3 4 3 1 1 1 2 2 2 1 2 3 2 1 3 1 3 4 4 4 4 5 2 2 2 1 1 3 4 3 1 1 1 4 5 5 6 3 1 4 3 2 3 7 15 21 19 17 18 18 17 17 17 15
9 6 6 8 16 21 12 4 2 4 7 7 6 6 6 3 7 12 9 8 9 7 4 4 7 8 5 4 4 4 6 6 5 3 2 2 1 1 1 2 2 3 2 2 4 4 3 2 3 4 5 8 6 3 3 3 1 1 1 2 1 3 5 3 1 2 2 2 4 5 5 3 2 2 1 1 0 5 12 17 16 14 16 17 18 19 19 17
6 3 3 6 13 19 17 12 5 2 4 7 5 6 8 5 5 12 15 11 12 11 6 5 7 7 3 4 4 4 6 7 5 2 3 3 2 2 3 4 1 4 4 4 5 4 2 1 3 5 7 8 6 5 4 3 3 2 2 2 4 3 3 3 2 3 2 1 4 7 5 3 4 4 5 5 5 7 11 15 17 18 18 19 19 19 19 18
5 2 5 6 7 13 16 14 10 4 3 7 5 3 9 10 4 7 12 11 12 14 8 3 5 6 5 6 5 5 6 6 5 3 2 2 2 2 4 4 3 3 4 4 3 4 3 2 3 4 5 5 5 5 3 3 3 5 4 6 8 6 5 5 4 5 4 3 8 9 5 4 8 8 7 8 7 7 9 16 20 21 20 21 20 18 17 17
5 2 8 11 6 5 9 13 14 10 6 7 4 1 5 11 8 7 8 6 8 14 9 3 6 8 7 8 6 4 5 5 5 4 3 2 2 1 3 3 3 2 1 2 2 4 4 3 3 2 3 4 3 4 4 3 2 4 6 9 11 8 6 6 7 8 8 7 10 9 4 6 10 8 5 8 10 12 15 19 20 19 18 19 18 17 18 18
7 3 7 11 6 3 9 17 18 15 10 7 4 4 5 9 10 8 5 3 3 9 10 7 8 9 8 8 7 7 7 6 5 4 3 3 3 3 1 1 1 1 2 3 2 2 3 1 2 2 2 4 2 2 3 3 3 5 7 10 11 8 6 7 9 10 8 8 11 10 10 12 12 8 6 9 14 17 18 19 17 16 16 16 16 18 19 18
8 5 5 7 6 3 6 13 13 10 9 8 7 7 5 5 8 6 4 5 5 5 8 11 9 8 8 8 9 9 8 9 8 7 7 6 4 3 3 2 2 2 2 2 1 1 1 1 0 3 1 5 5 3 3 1 2 5 9 11 8 5 6 10 10 7 5 9 12 10 10 13 11 6 5 7 10 12 14 16 16 14 13 15 17 19 18 18
11 8 5 3 4 4 5 7 8 6 6 7 9 7 5 6 8 5 2 5 7 4 6 11 10 6 5 7 9 10 8 7 7 6 7 8 7 7 5 5 7 5 2 2 1 1 1 1 1 5 2 4 4 3 3 3 4 6 13 14 10 7 9 10 7 6 7 9 9 7 7 10 10 5 3 5 7 11 13 15 15 13 13 17 19 19 18 18
14 9 5 2 1 3 4 4 6 7 6 7 9 9 8 8 7 6 3 3 3 4 3 8 10 6 4 7 11 14 12 9 8 8 8 7 8 9 7 8 10 8 5 4 1 0 3 3 1 3 2 4 5 3 1 6 5 8 11 10 10 10 11 10 7 8 9 6 5 6 8 9 8 5 4 5 7 10 13 16 16 16 16 18 19 19 19 18
Wind_Direction
205 203 202 204 204 205 206 207 208 210 210 212 216 217 222 228 233 241 248 254 262 270 279 285 293 300 306 313 317 322 323 324 324 322 317 307 289 158 118 82 43 23 18 16 12 298 213 168 175 200 42 52 57 98 107 130 167 117 88 107 219 205 201 194 183 182 178 262 300 316 304 273 293 297 313 302 282 295 298 293 289 280 277 280 284 290 297 302
213 211 212 213 214 215 215 216 219 222 224 228 230 233 240 243 249 255 261 267 272 278 283 288 294 298 304 310 313 319 320 323 326 327 349 31 114 123 104 51 24 9 7 360 337 279 169 153 142 89 48 57 34 96 167 191 182 162 112 133 226 203 212 218 212 237 241 268 284 302 297 270 290 302 316 302 286 301 299 295 297 292 287 289 290 290 296 300
220 218 219 218 221 222 222 225 227 231 234 237 240 244 249 250 255 261 264 269 275 280 284 287 291 294 301 303 309 315 319 325 329 69 95 88 105 105 61 11 356 348 344 338 313 212 179 178 125 79 215 88 286 219 208 205 199 205 136 157 244 219 237 270 270 275 284 291 290 303 301 287 297 303 301 296 302 300 281 287 294 295 298 301 301 299 298 296
227 225 225 224 227 228 228 230 231 234 237 240 242 244 248 250 255 259 261 265 270 276 279 283 287 291 295 299 307 311 321 327 321 137 115 99 86 8 355 341 333 329 325 326 294 211 197 194 146 175 202 215 219 220 233 213 205 199 158 188 237 208 237 274 280 290 302 313 307 307 308 299 304 304 292 301 315 294 277 286 289 292 302 306 306 304 300 295
232 231 232 232 234 235 236 237 236 238 240 243 245 247 250 253 256 258 261 265 268 272 276 280 283 288 292 297 303 307 324 342 160 162 178 216 299 312 321 319 317 317 313 309 247 206 204 194 169 178 194 227 181 177 247 217 195 184 210 230 244 215 224 274 282 297 306 312 310 310 308 300 307 302 293 288 263 272 287 296 298 297 304 309 309 306 300 295
234 234 235 237 239 240 242 243 244 245 246 248 249 252 254 256 258 261 264 267 270 274 277 280 283 288 293 296 300 304 313 298 224 224 238 267 289 296 302 306 311 309 298 268 220 198 200 193 189 187 181 223 188 188 245 226 204 225 258 245 254 252 249 272 280 294 304 305 301 300 294 296 305 299 299 282 263 279 293 300 302 303 308 312 310 307 302 300
235 235 235 238 239 241 244 245 247 248 249 252 253 255 257 259 262 264 268 271 274 279 282 284 286 289 293 295 297 298 279 269 273 262 263 273 279 285 289 299 310 304 272 220 212 197 198 193 197 194 164 205 215 213 251 264 215 215 260 262 267 270 261 270 279 289 296 293 290 294 292 291 290 290 301 287 280 288 299 302 304 308 315 314 312 312 311 310
237 237 238 239 241 243 245 246 248 250 253 255 258 261 263 266 269 271 274 276 279 283 285 285 287 288 290 291 291 288 274 281 289 266 264 265 263 269 275 288 302 299 254 210 211 199 197 193 198 198 177 205 214 222 273 304 226 195 233 272 282 285 283 288 293 292 292 290 291 295 288 283 283 284 285 281 284 296 305 303 306 313 316 317 321 323 320 317
239 241 241 243 245 247 249 250 252 254 257 260 263 266 270 273 275 278 279 281 283 283 283 283 284 285 284 282 282 284 280 290 301 263 255 254 254 259 264 272 275 286 267 221 209 203 202 197 204 209 214 225 221 240 354 19 257 202 214 276 288 291 298 303 301 293 292 290 289 290 284 285 289 292 276 274 285 307 306 303 309 314 314 322 334 336 334 329
243 244 244 246 248 251 253 255 258 260 263 265 268 271 274 276 278 280 280 280 280 279 278 277 279 279 276 273 258 257 283 290 289 270 253 250 257 256 257 258 252 266 274 247 220 213 213 205 207 209 226 238 213 248 288 163 261 282 299 309 300 303 305 304 295 289 291 292 285 261 266 282 289 306 265 276 297 309 299 303 311 314 319 338 353 355 360 347
248 248 248 250 251 255 258 261 264 265 267 269 270 272 272 273 273 274 274 274 274 274 273 272 274 272 271 266 232 231 278 285 279 273 263 257 252 250 250 246 250 265 271 258 234 224 221 214 214 207 225 235 219 271 282 248 294 317 333 322 307 315 309 296 285 285 290 294 282 229 252 287 295 187 250 274 305 306 298 303 309 319 338 358 5 1 357 342
250 250 251 252 253 256 259 262 264 264 266 266 267 267 267 268 267 268 268 269 270 269 269 269 270 268 269 263 247 254 277 277 273 271 264 257 248 247 250 252 262 274 270 250 237 230 221 220 223 225 238 229 230 316 299 311 324 317 340 327 305 337 316 290 281 281 278 271 271 177 289 306 253 221 255 281 300 295 294 299 312 341 3 9 5 354 347 334
248 248 249 250 251 253 255 257 258 259 260 261 262 262 263 264 264 264 264 265 266 266 268 268 269 271 267 261 262 268 272 267 265 262 257 254 254 256 260 265 271 273 260 239 236 230 221 224 226 233 249 245 243 294 292 316 320 307 331 348 303 352 317 284 288 296 289 276 248 152 252 290 255 248 262 292 298 292 294 302 336 8 16 24 16 3 354 333
243 244 244 245 247 249 250 251 251 252 253 254 255 256 257 259 259 261 261 263 264 264 268 269 271 272 259 257 270 271 264 264 260 255 255 255 259 265 270 275 274 264 249 236 233 229 226 228 233 242 250 252 263 288 314 330 326 303 334 27 320 328 278 286 304 297 312 303 218 158 201 265 271 275 278 298 301 297 297 316 10 19 22 34 31 42 51 48
238 239 240 241 243 244 245 246 247 247 248 248 249 250 252 253 256 258 260 262 263 265 267 270 271 265 259 263 269 267 262 260 256 253 254 257 263 270 274 272 263 250 239 230 227 229 229 226 233 243 249 257 277 357 358 347 343 17 327 308 326 207 261 302 301 228 217 294 168 147 227 268 270 281 291 304 303 299 302 336 24 31 45 57 65 77 80 80
235 235 236 238 239 240 242 243 244 244 244 245 247 247 248 251 255 257 261 263 265 266 266 269 264 251 259 272 264 260 258 251 248 246 246 254 263 266 262 247 235 229 227 227 228 228 230 231 234 242 248 252 127 81 40 360 331 354 198 250 266 221 256 315 305 266 184 250 124 150 243 279 277 283 295 300 299 304 316 349 37 65 74 81 85 86 90 86
234 233 234 235 235 236 237 238 240 240 241 241 241 244 247 251 257 260 263 265 266 267 265 263 257 250 252 258 256 250 248 240 230 230 235 244 253 249 222 206 204 211 218 222 224 219 220 213 191 223 261 73 105 98 55 328 295 312 276 230 244 232 233 285 301 321 28 56 340 272 243 256 277 288 292 297 305 316 327 4 72 91 89 93 92 86 82 75
229 229 229 230 231 231 230 232 233 234 235 234 236 240 245 251 257 261 262 263 262 264 267 245 224 257 260 244 240 243 243 237 226 222 225 223 224 219 203 208 211 208 204 201 207 187 182 171 138 199 359 61 123 118 159 236 228 251 255 245 268 262 248 255 272 305 351 8 316 301 286 265 282 288 292 306 326 327 334 62 104 106 102 98 90 82 75 70
224 225 224 225 224 224 223 222 223 226 229 229 235 239 248 257 259 259 255 249 237 222 252 224 196 192 246 215 222 251 256 235 219 215 216 214 215 216 214 217 197 188 178 162 198 181 159 109 87 167 243 193 196 176 199 221 210 228 239 229 261 268 264 257 256 274 322 347 296 283 278 274 287 284 299 323 340 335 345 109 111 102 98 91 86 81 75 72
221 221 220 219 217 216 215 214 215 217 222 228 235 247 257 260 263 260 248 241 235 231 240 231 217 228 234 223 249 266 253 220 214 216 215 219 221 213 201 189 169 169 172 158 194 192 156 135 166 209 213 205 211 208 212 227 216 230 255 263 260 257 271 266 262 279 333 2 274 267 274 285 285 285 322 346 5 9 36 106 100 91 90 85 84 81 77 77
217 217 215 214 213 212 209 210 211 211 214 223 232 247 252 241 239 270 262 255 251 247 248 248 245 247 251 257 261 260 248 224 222 223 220 219 211 197 188 174 145 165 215 157 128 132 148 172 221 220 215 211 218 213 211 243 243 226 246 268 275 256 262 257 251 281 338 152 264 298 342 294 287 306 360 18 36 29 47 93 91 90 90 86 87 84 83 85
212 211 210 210 209 207 206 206 210 212 213 221 227 233 243 245 250 264 279 277 267 258 253 252 250 250 253 254 252 252 251 242 231 225 218 206 193 192 185 165 155 194 187 136 104 107 165 213 237 231 218 219 248 195 175 211 207 196 203 226 264 255 279 281 272 304 349 195 268 318 338 280 286 15 34 42 62 55 66 89 94 97 94 89 90 89 90 91
206 206 207 207 205 205 204 205 210 213 218 225 230 233 242 248 249 262 276 283 279 271 257 249 246 245 247 248 246 243 238 234 235 225 211 194 188 196 185 165 180 186 165 172 160 158 192 232 243 236 199 186 254 230 168 171 190 207 199 199 249 241 213 276 288 320 325 317 278 313 316 276 279 76 59 61 79 77 79 89 91 94 93 91 93 92 92 90
201 202 205 203 203 206 204 206 209 212 222 226 231 235 239 238 234 269 281 270 285 278 259 247 243 242 243 242 239 232 226 227 233 219 204 194 187 191 192 181 179 187 198 197 183 187 221 241 242 202 155 170 228 256 202 168 232 245 218 212 239 239 214 225 280 325 330 351 359 7 340 297 262 118 103 81 85 79 81 87 84 86 92 93 94 92 90 89
198 199 203 202 201 204 204 206 207 211 220 221 223 223 218 218 223 294 313 293 286 275 259 240 232 236 234 230 226 216 214 222 222 210 201 196 188 179 193 187 176 210 219 192 182 213 247 251 214 109 136 165 195 253 224 174 220 283 237 216 220 230 228 220 354 13 15 338 326 33 8 296 311 24 171 140 85 72 74 78 77 82 90 93 91 89 89 90
199 199 201 200 197 199 201 203 207 212 214 209 207 204 200 201 195 6 12 20 300 251 219 201 205 212 208 202 190 177 188 230 214 203 195 193 193 181 167 182 175 217 209 170 166 223 247 243 202 165 166 149 174 247 230 167 158 278 248 208 193 183 179 161 86 59 89 252 281 49 103 261 313 322 200 168 110 91 76 66 74 81 85 90 91 91 93 93
204 203 202 200 196 196 197 195 202 204 197 195 195 194 197 182 141 65 45 2 290 207 154 166 179 178 184 174 164 158 162 186 172 185 186 186 194 187 186 208 171 208 186 127 164 241 224 225 192 190 190 170 195 250 222 159 138 235 238 140 134 140 159 159 116 136 217 254 315 358 151 243 293 280 215 159 128 106 88 69 73 80 84 90 93 96 97 97
211 210 208 207 203 198 195 194 200 198 192 192 194 194 183 155 146 96 79 324 274 139 123 156 157 159 164 163 166 162 139 145 139 177 180 180 191 186 209 218 174 198 184 126 196 256 193 184 201 178 168 197 213 228 186 156 149 237 206 126 124 141 154 146 119 153 254 11 307 293 147 251 261 271 271 146 167 171 140 139 102 91 93 98 100 101 101 101
217 215 215 216 212 205 202 206 206 206 208 202 193 190 169 149 136 82 93 218 247 90 116 152 144 152 147 150 171 169 139 147 143 174 173 181 193 182 203 204 171 187 228 142 202 254 47 195 202 151 151 207 212 217 172 164 182 208 153 103 62 74 92 95 112 117 38 8 251 234 183 207 262 279 292 158 219 213 162 159 131 112 109 108 109 109 108 105
218 218 217 218 217 213 217 221 215 213 216 208 198 186 162 154 122 107 205 222 64 80 126 150 167 163 140 129 169 194 166 177 124 147 160 180 184 171 134 163 137 127 343 359 241 260 323 8 193 158 192 198 147 87 81 148 152 130 102 58 25 24 43 46 74 88 58 279 251 221 193 185 266 281 229 179 264 202 156 153 147 129 121 119 118 117 114 110
219 218 215 215 218 216 221 227 219 213 214 208 201 183 157 149 115 183 215 208 42 135 125 144 181 153 148 136 165 193 165 152 141 140 142 153 162 156 112 129 94 79 7 333 301 309 327 301 253 238 214 150 107 78 28 45 97 105 85 67 40 340 9 23 357 47 112 253 267 231 180 165 222 265 283 316 327 287 164 163 164 147 133 129 127 125 119 114
223 221 217 219 222 219 222 227 219 213 212 203 194 177 150 167 201 207 217 62 51 209 158 174 181 157 169 139 157 182 142 166 182 151 141 144 157 193 182 169 163 86 346 258 261 337 308 246 267 318 251 164 116 81 8 13 43 84 97 90 76 323 350 357 305 11 215 252 272 174 134 156 233 246 320 334 338 329 172 155 155 149 141 138 135 131 125 120
230 229 227 227 227 225 225 226 224 219 209 194 181 162 137 226 214 183 192 178 202 208 135 137 140 138 145 137 205 188 141 193 195 173 150 122 147 230 254 218 169 127 250 206 215 346 293 295 301 16 284 195 153 145 206 278 96 137 143 129 123 146 182 267 264 271 262 268 281 153 133 289 265 283 339 331 338 356 110 135 144 143 140 139 138 135 129 125
233 235 234 232 231 229 225 226 227 218 197 181 168 145 161 229 215 165 201 218 229 185 74 97 111 110 128 169 226 179 154 222 179 155 139 106 120 249 265 245 187 125 109 153 181 182 215 303 231 181 225 184 173 180 166 142 150 175 156 138 146 159 168 215 225 209 249 280 297 251 187 217 219 290 329 357 35 66 104 124 134 136 139 140 138 136 132 128
231 232 231 229 227 223 220 219 216 201 183 171 156 162 202 206 169 164 210 223 228 119 47 69 106 116 181 252 268 197 188 228 160 131 150 158 176 201 216 223 190 149 122 150 233 179 172 260 248 239 178 163 175 190 140 111 120 193 128 116 166 188 162 179 207 180 184 292 297 232 219 208 174 218 344 61 67 79 103 120 130 136 144 145 142 140 135 131
223 221 218 218 214 210 208 207 199 187 178 165 151 216 209 193 169 178 192 183 178 142 112 60 92 138 230 274 278 236 196 191 146 138 201 204 203 207 215 227 188 171 165 165 212 188 143 268 278 346 324 181 178 179 149 138 184 157 128 177 215 182 132 121 264 84 96 256 272 215 229 290 27 224 325 69 73 86 102 122 138 147 152 153 151 146 140 137
205 201 201 203 203 201 201 198 186 181 177 165 187 222 195 203 195 182 183 151 146 130 134 170 174 176 215 231 227 222 168 148 159 153 214 231 226 207 210 242 187 184 194 183 211 211 155 264 278 156 196 229 186 152 96 73 131 131 174 214 203 119 85 98 229 340 39 246 273 262 218 240 237 238 271 104 154 161 150 155 158 162 167 166 160 152 147 143
189 189 194 198 198 198 199 197 184 179 174 169 222 222 185 211 207 183 184 149 116 108 139 198 208 180 192 203 224 207 165 182 179 164 197 232 240 196 177 212 176 191 214 197 202 254 135 249 282 224 179 247 46 110 34 12 72 130 186 201 119 130 259 89 159 215 224 239 272 291 266 233 209 202 193 203 198 183 180 186 183 185 185 178 167 159 156 151
188 190 200 204 201 199 200 203 191 181 175 190 222 218 185 192 212 207 204 172 107 124 164 211 211 169 182 180 195 192 177 189 179 173 189 196 229 202 143 184 172 98 225 183 178 262 119 159 275 287 212 267 40 87 200 272 4 71 85 327 68 159 182 166 166 173 187 226 256 290 298 274 234 199 186 202 191 167 175 190 197 198 190 181 172 166 165 160
183 182 206 209 204 199 197 203 196 184 184 218 207 201 172 176 202 209 213 214 162 154 197 203 184 201 199 177 188 193 187 194 180 181 208 194 212 246 132 162 158 83 36 145 162 313 108 166 246 299 329 114 159 202 191 186 171 117 165 231 252 213 166 230 230 135 144 188 222 267 278 267 252 193 184 198 175 164 180 182 190 197 189 182 176 172 175 174
178 167 215 202 197 196 191 195 199 194 214 229 187 163 166 172 177 192 206 208 193 169 152 159 177 199 190 179 193 167 131 181 185 191 229 218 217 251 226 164 154 153 62 100 145 178 169 175 202 237 286 184 222 243 184 175 162 152 178 199 191 170 145 248 264 238 140 184 190 216 261 273 263 217 200 193 168 176 186 178 182 193 189 185 184 180 185 189
182 170 190 182 181 186 187 194 212 209 221 210 178 169 167 161 165 173 179 183 183 162 136 154 180 175 190 203 174 100 114 165 217 204 224 237 229 196 241 297 123 147 116 123 194 194 123 113 163 227 215 210 248 313 27 163 136 133 160 164 154 143 132 179 235 245 229 224 153 166 252 277 273 254 267 200 177 181 185 177 178 190 192 189 189 189 193 198
178 162 165 176 178 177 182 209 234 219 242 236 190 185 176 158 160 176 176 174 173 159 161 193 185 183 217 209 139 133 168 181 222 211 228 254 236 182 201 244 323 87 106 121 229 146 102 95 173 262 309 318 312 337 358 27 81 126 278 113 144 161 148 174 207 186 183 235 224 261 254 247 347 332 338 185 181 180 183 181 181 192 198 194 196 203 203 202
168 154 153 172 180 178 183 219 205 208 235 232 242 239 218 203 185 183 180 183 188 165 157 198 188 197 221 185 148 175 174 172 233 219 205 218 212 194 207 219 205 161 136 178 188 169 176 142 139 192 313 319 322 344 348 351 35 170 263 278 156 129 117 115 149 135 178 219 217 240 251 242 334 352 22 77 166 189 194 192 193 202 204 201 207 213 210 207
154 149 153 170 180 184 202 253 197 206 219 212 228 230 225 236 207 201 200 199 199 177 156 212 198 192 198 163 154 187 182 195 227 210 169 198 249 303 345 325 215 176 147 166 153 144 174 184 143 167 226 245 245 229 234 270 254 178 263 268 194 137 137 133 140 199 218 217 215 233 247 273 332 337 328 343 221 217 216 212 216 225 220 216 220 220 214 212
159 161 158 165 183 198 224 242 228 234 216 202 222 224 216 234 221 204 201 207 212 199 198 225 193 178 184 168 172 210 210 211 217 184 152 183 253 306 357 3 77 132 111 119 121 106 119 207 185 186 222 233 214 211 213 160 148 202 260 240 217 204 175 153 157 208 218 279 264 242 220 242 275 237 211 226 223 219 230 232 232 234 233 235 236 230 219 213
160 182 169 157 184 210 228 235 223 223 202 192 202 218 212 216 222 206 201 205 209 203 212 248 184 185 198 173 178 218 212 203 203 192 162 163 229 310 357 24 66 105 105 105 99 95 108 245 228 186 232 231 169 185 207 129 156 213 243 253 246 230 174 164 200 212 181 211 258 251 192 188 249 239 201 209 225 225 233 239 240 241 244 246 243 232 217 210
169 202 182 172 176 205 216 217 211 211 209 199 207 260 210 206 204 205 203 202 200 196 203 235 203 203 195 171 177 206 195 196 207 193 157 142 166 20 4 4 16 24 55 67 60 94 121 234 236 154 238 243 162 172 185 151 190 222 228 244 252 244 190 174 211 215 195 214 255 264 232 221 251 254 208 202 218 227 238 248 251 251 252 249 239 222 211 207
191 214 186 184 197 225 212 207 203 206 209 200 212 240 216 202 204 203 179 146 207 203 201 217 217 205 194 179 183 198 195 191 204 204 169 159 170 146 119 306 310 2 54 53 27 76 115 221 229 143 253 277 289 254 216 179 210 242 241 238 244 248 217 202 225 226 212 228 252 262 262 260 261 254 227 227 229 231 242 253 255 252 250 243 227 212 205 201
193 206 188 193 220 249 220 204 195 204 211 201 215 227 206 194 208 205 171 178 208 207 199 214 217 196 195 201 201 213 208 185 190 202 176 164 188 189 180 196 167 118 65 76 3 4 92 202 168 91 358 300 311 291 256 198 205 254 263 256 252 260 249 237 237 232 221 238 249 255 263 269 268 242 218 238 232 221 230 241 243 245 239 224 211 202 197 194
188 185 166 167 216 214 201 193 182 196 213 207 215 216 199 209 208 185 181 217 212 199 197 207 203 183 199 212 211 223 219 187 189 200 175 170 183 181 182 179 155 140 128 158 181 358 100 190 33 71 83 284 309 287 267 8 14 291 273 264 252 246 251 249 235 207 210 228 242 249 254 261 264 249 225 232 213 206 217 223 226 229 218 207 201 195 191 190
199 197 180 143 213 209 189 179 176 194 211 209 213 213 210 217 197 173 213 266 188 187 232 206 185 169 190 206 217 227 217 175 133 118 116 114 111 111 120 145 151 150 158 157 146 75 132 141 121 100 144 273 301 282 299 35 10 285 268 252 234 233 242 251 253 234 216 197 201 224 234 244 255 270 274 244 204 206 220 218 214 213 203 197 197 193 190 192
Height
1554 1554 1554 1554 1554 1555 1555 1555 1555 1555 1555 1556 1556 1556 1556 1556 1556 1556 1556 1556 1556 1556 1556 1555 1555 1555 1554 1554 1553 1553 1552 1552 1551 1549 1548 1546 1546 1547 1548 1549 1549 1549 1549 1548 1548 1549 1549 1549 1549 1549 1549 1549 1550 1550 1550 1550 1551 1551 1554 1557 1558 1560 1557 1551 1550 1549 1549 1547 1545 1543 1543 1543 1542 1540 1539 1539 1538 1537 1536 1534 1533 1534 1533 1533 1532 1532 1531 1531
1554 1554 1554 1554 1554 1554 1554 1554 1555 1555 1555 1555 1555 1555 1556 1556 1556 1556 1555 1555 1555 1555 1555 1555 1554 1554 1554 1553 1553 1552 1551 1551 1550 1548 1547 1546 1546 1547 1548 1548 1548 1548 1548 1548 1548 1548 1548 1549 1548 1549 1549 1549 1550 1550 1550 1550 1551 1552 1555 1558 1557 1556 1551 1546 1547 1546 1547 1546 1544 1543 1543 1542 1541 1539 1539 1538 1537 1537 1535 1531 1529 1529 1529 1530 1531 1531 1531 1530
1553 1553 1553 1553 1553 1553 1554 1554 1554 1554 1554 1555 1555 1555 1555 1555 1555 1555 1554 1554 1554 1554 1554 1554 1553 1553 1553 1553 1552 1551 1550 1550 1549 1548 1547 1547 1547 1547 1547 1547 1547 1548 1548 1548 1548 1548 1548 1548 1548 1548 1549 1549 1550 1550 1550 1550 1551 1551 1554 1557 1553 1550 1547 1545 1545 1544 1545 1544 1543 1542 1542 1541 1539 1538 1538 1537 1537 1535 1534 1531 1528 1526 1524 1527 1530 1530 1529 1529
1552 1552 1552 1552 1552 1552 1553 1553 1553 1553 1554 1554 1554 1554 1554 1554 1554 1554 1553 1553 1553 1553 1553 1553 1552 1552 1552 1552 1551 1551 1550 1549 1547 1547 1547 1547 1547 1547 1547 1547 1547 1547 1547 1547 1547 1547 1547 1547 1548 1548 1549 1549 1550 1550 1550 1549 1550 1551 1552 1553 1549 1547 1547 1544 1543 1543 1543 1543 1542 1541 1541 1539 1538 1538 1537 1537 1537 1533 1530 1529 1528 1525 1522 1524 1527 1527 1527 1526
1551 1551 1551 1551 1551 1552 1552 1552 1552 1552 1553 1553 1553 1553 1553 1553 1553 1552 1552 1552 1552 1552 1552 1552 1551 1551 1551 1551 1551 1550 1550 1550 1547 1546 1547 1546 1546 1546 1546 1546 1546 1546 1546 1546 1546 1546 1547 1547 1547 1548 1548 1549 1549 1550 1549 1548 1549 1550 1549 1548 1546 1546 1546 1543 1543 1543 1542 1542 1540 1540 1540 1538 1537 1536 1536 1537 1536 1530 1527 1527 1527 1524 1522 1522 1524 1525 1524 1524
1550 1550 1550 1550 1550 1551 1551 1551 1551 1551 1551 1552 1551 1551 1551 1551 1551 1551 1551 1551 1551 1551 1550 1550 1550 1550 1550 1550 1550 1549 1550 1550 1547 1546 1546 1546 1545 1545 1546 1545 1545 1545 1545 1545 1545 1545 1546 1546 1546 1547 1548 1548 1549 1549 1548 1548 1549 1549 1547 1546 1545 1545 1545 1543 1543 1542 1541 1541 1539 1538 1538 1536 1536 1535 1534 1534 1530 1527 1525 1526 1525 1523 1522 1522 1522 1522 1522 1522
1548 1548 1549 1549 1549 1550 1550 1550 1550 1550 1550 1550 1550 1550 1550 1550 1550 1550 1550 1550 1549 1549 1549 1549 1549 1549 1549 1548 1548 1548 1548 1547 1545 1545 1545 1544 1544 1544 1545 1544 1544 1544 1544 1544 1544 1545 1545 1545 1545 1546 1547 1547 1548 1547 1547 1547 1547 1548 1547 1544 1544 1544 1543 1542 1542 1541 1540 1539 1537 1537 1536 1535 1536 1534 1533 1530 1524 1524 1524 1524 1523 1522 1520 1520 1520 1521 1521 1521
1546 1547 1547 1548 1548 1548 1548 1549 1549 1549 1549 1549 1549 1549 1549 1548 1548 1548 1548 1548 1548 1548 1548 1547 1547 1547 1547 1547 1547 1547 1546 1544 1543 1544 1543 1543 1543 1543 1544 1543 1544 1543 1543 1544 1544 1544 1544 1544 1545 1545 1546 1546 1546 1546 1546 1546 1546 1546 1545 1544 1543 1543 1541 1541 1540 1538 1537 1536 1535 1535 1533 1532 1533 1533 1531 1525 1521 1522 1522 1522 1522 1521 1519 1519 1520 1520 1520 1520
1545 1545 1546 1546 1546 1547 1547 1547 1547 1547 1547 1547 1547 1547 1547 1547 1547 1546 1546 1546 1546 1546 1546 1545 1545 1545 1545 1545 1545 1545 1543 1542 1542 1542 1542 1542 1542 1542 1542 1542 1543 1543 1543 1543 1543 1543 1543 1544 1544 1544 1545 1545 1545 1545 1545 1546 1546 1544 1544 1543 1542 1541 1540 1539 1538 1535 1535 1534 1533 1534 1531 1529 1530 1531 1527 1521 1520 1520 1520 1520 1520 1520 1519 1519 1519 1518 1518 1518
1543 1543 1544 1544 1544 1545 1545 1545 1546 1546 1546 1546 1546 1545 1545 1545 1545 1545 1544 1544 1544 1544 1544 1544 1544 1544 1544 1543 1544 1544 1541 1540 1541 1540 1541 1541 1540 1541 1541 1542 1542 1542 1542 1542 1542 1543 1543 1543 1543 1544 1544 1544 1544 1544 1545 1545 1544 1543 1543 1542 1541 1540 1538 1537 1536 1532 1532 1531 1530 1532 1529 1527 1528 1530 1525 1518 1518 1519 1517 1518 1519 1519 1518 1518 1518 1517 1517 1517
1541 1542 1542 1542 1543 1543 1543 1544 1544 1544 1544 1544 1544 1544 1544 1544 1543 1543 1543 1543 1543 1543 1542 1542 1542 1542 1542 1542 1542 1541 1539 1539 1539 1539 1539 1539 1539 1540 1540 1540 1540 1541 1541 1541 1542 1542 1542 1543 1543 1543 1543 1544 1544 1544 1543 1543 1543 1542 1542 1540 1539 1539 1536 1535 1534 1531 1531 1529 1527 1529 1528 1526 1528 1529 1522 1517 1518 1518 1516 1515 1517 1518 1518 1518 1517 1517 1517 1516
1540 1540 1540 1541 1541 1541 1542 1542 1542 1543 1543 1543 1543 1542 1542 1542 1542 1542 1541 1541 1541 1541 1541 1541 1541 1541 1540 1540 1539 1538 1537 1538 1538 1538 1538 1538 1538 1538 1539 1539 1539 1539 1540 1540 1541 1541 1541 1542 1542 1543 1543 1543 1543 1543 1543 1542 1542 1541 1541 1541 1539 1539 1536 1531 1530 1530 1530 1529 1526 1528 1529 1527 1526 1524 1518 1516 1517 1517 1516 1514 1516 1518 1517 1517 1516 1516 1515 1514
1538 1538 1538 1539 1539 1539 1540 1540 1541 1541 1541 1541 1541 1541 1541 1540 1540 1540 1540 1540 1540 1540 1539 1539 1539 1539 1539 1537 1535 1535 1536 1536 1536 1536 1536 1536 1536 1537 1537 1537 1538 1538 1538 1539 1539 1540 1541 1541 1541 1542 1542 1543 1543 1543 1542 1541 1542 1541 1541 1542 1540 1541 1537 1528 1528 1529 1528 1527 1525 1528 1534 1529 1522 1519 1516 1516 1517 1516 1515 1515 1516 1517 1516 1516 1515 1514 1513 1513
1536 1536 1536 1537 1537 1538 1538 1538 1539 1539 1539 1539 1539 1539 1539 1539 1539 1539 1539 1539 1538 1538 1538 1538 1538 1538 1537 1535 1533 1534 1534 1534 1534 1534 1534 1534 1535 1535 1535 1536 1536 1537 1537 1538 1538 1539 1540 1540 1541 1542 1542 1542 1542 1542 1542 1542 1542 1542 1542 1543 1544 1546 1538 1527 1527 1529 1527 1526 1524 1527 1535 1530 1520 1517 1516 1517 1517 1516 1515 1515 1516 1516 1515 1515 1513 1513 1512 1512
1534 1534 1535 1535 1535 1536 1536 1536 1537 1537 1537 1538 1538 1538 1537 1537 1537 1537 1537 1537 1537 1537 1537 1537 1536 1536 1535 1533 1532 1532 1532 1532 1532 1532 1533 1533 1533 1534 1534 1534 1535 1535 1536 1537 1537 1538 1539 1540 1540 1541 1541 1541 1541 1542 1544 1544 1543 1543 1545 1545 1547 1547 1538 1529 1526 1527 1526 1525 1524 1528 1532 1529 1522 1518 1516 1516 1516 1516 1516 1516 1516 1515 1515 1514 1513 1513 1512 1512
1532 1532 1533 1533 1534 1534 1534 1535 1535 1535 1536 1536 1536 1536 1536 1536 1535 1535 1535 1535 1536 1535 1535 1535 1535 1535 1534 1531 1530 1530 1530 1530 1531 1531 1531 1532 1532 1533 1533 1533 1534 1534 1535 1535 1536 1537 1538 1539 1540 1540 1540 1540 1542 1544 1546 1548 1546 1545 1546 1545 1545 1545 1542 1536 1526 1524 1526 1525 1525 1527 1529 1527 1522 1518 1516 1515 1515 1515 1516 1517 1516 1515 1515 1514 1514 1513 1512 1512
1529 1530 1530 1531 1532 1532 1532 1533 1533 1534 1534 1535 1535 1535 1535 1535 1534 1534 1534 1534 1534 1534 1534 1534 1534 1535 1532 1529 1529 1528 1528 1529 1529 1530 1530 1531 1531 1532 1532 1533 1533 1534 1534 1535 1536 1536 1537 1539 1539 1540 1540 1541 1542 1544 1549 1552 1548 1545 1546 1546 1543 1543 1543 1540 1530 1525 1525 1526 1527 1527 1527 1526 1521 1518 1516 1514 1514 1514 1515 1516 1515 1515 1515 1514 1514 1513 1513 1512
1527 1528 1529 1529 1530 1530 1531 1531 1532 1533 1533 1533 1533 1534 1534 1533 1533 1533 1533 1533 1533 1533 1534 1533 1534 1535 1530 1526 1527 1527 1527 1528 1528 1529 1529 1530 1530 1531 1532 1532 1532 1533 1533 1534 1535 1536 1537 1538 1539 1540 1541 1542 1542 1543 1548 1547 1542 1540 1542 1543 1543 1542 1542 1540 1534 1528 1525 1526 1527 1527 1527 1525 1521 1518 1514 1513 1515 1514 1513 1515 1514 1514 1515 1515 1514 1513 1513 1512
1525 1526 1527 1527 1528 1529 1530 1530 1531 1531 1532 1532 1532 1532 1532 1532 1532 1531 1531 1531 1531 1532 1531 1530 1530 1532 1528 1524 1525 1526 1526 1527 1527 1528 1528 1529 1530 1530 1531 1531 1532 1532 1533 1534 1534 1535 1536 1537 1540 1541 1540 1541 1539 1539 1540 1536 1535 1536 1538 1540 1541 1542 1540 1537 1534 1528 1526 1528 1527 1525 1525 1524 1521 1517 1513 1514 1514 1513 1513 1514 1514 1515 1515 1515 1514 1514 1514 1514
1523 1524 1525 1526 1527 1527 1528 1529 1529 1530 1530 1531 1531 1531 1531 1531 1531 1530 1529 1529 1528 1528 1527 1526 1526 1526 1525 1524 1525 1525 1525 1526 1526 1526 1527 1528 1528 1529 1530 1531 1531 1532 1533 1533 1534 1534 1535 1538 1540 1537 1535 1534 1533 1533 1532 1532 1534 1536 1538 1540 1541 1542 1540 1535 1531 1527 1526 1528 1526 1525 1525 1523 1519 1516 1515 1515 1513 1513 1514 1514 1515 1516 1516 1515 1515 1515 1515 1515
1521 1522 1523 1524 1525 1526 1527 1527 1528 1529 1529 1529 1530 1530 1530 1530 1530 1529 1528 1526 1525 1525 1524 1524 1524 1523 1523 1523 1524 1524 1524 1525 1525 1525 1526 1526 1527 1528 1529 1530 1531 1532 1533 1533 1534 1534 1535 1538 1536 1530 1528 1529 1529 1531 1532 1534 1536 1537 1539 1540 1540 1541 1538 1532 1529 1527 1526 1528 1527 1525 1525 1521 1517 1517 1518 1516 1514 1516 1516 1516 1517 1516 1517 1517 1516 1517 1517 1517
1520 1521 1522 1523 1524 1525 1526 1526 1527 1527 1528 1528 1529 1529 1529 1529 1529 1528 1528 1525 1522 1522 1522 1521 1521 1521 1520 1521 1522 1523 1523 1523 1523 1523 1524 1525 1526 1527 1527 1529 1530 1531 1532 1533 1534 1536 1538 1537 1530 1524 1526 1528 1529 1531 1533 1534 1536 1538 1539 1541 1540 1538 1535 1531 1527 1527 1527 1526 1525 1524 1525 1521 1517 1520 1521 1518 1518 1520 1520 1518 1518 1518 1517 1518 1518 1518 1519 1518
1518 1519 1520 1521 1522 1524 1524 1525 1526 1526 1527 1527 1527 1528 1528 1528 1528 1527 1527 1526 1521 1518 1518 1517 1517 1517 1517 1518 1519 1520 1520 1520 1520 1520 1521 1523 1524 1525 1526 1527 1529 1529 1531 1531 1532 1536 1538 1531 1524 1522 1526 1529 1529 1530 1532 1534 1535 1536 1537 1540 1538 1535 1535 1532 1527 1527 1526 1526 1525 1524 1524 1520 1518 1522 1522 1522 1522 1521 1522 1521 1520 1520 1519 1520 1521 1520 1520 1519
1516 1517 1519 1519 1521 1522 1522 1524 1524 1525 1525 1525 1526 1527 1527 1527 1527 1527 1526 1525 1521 1515 1513 1513 1513 1513 1514 1515 1515 1517 1517 1517 1518 1518 1519 1521 1522 1524 1524 1524 1527 1528 1529 1528 1528 1531 1528 1523 1521 1523 1526 1528 1528 1528 1531 1535 1535 1534 1533 1534 1533 1530 1531 1531 1529 1528 1525 1527 1527 1524 1524 1518 1515 1520 1522 1523 1524 1523 1524 1523 1522 1522 1521 1522 1522 1521 1521 1520
1514 1516 1517 1518 1520 1520 1521 1522 1522 1524 1524 1524 1525 1525 1526 1526 1526 1526 1526 1525 1522 1514 1511 1510 1510 1511 1510 1512 1513 1514 1515 1515 1516 1516 1517 1518 1520 1521 1521 1522 1525 1526 1526 1527 1529 1530 1525 1520 1521 1524 1526 1528 1528 1527 1529 1532 1535 1534 1529 1527 1527 1526 1527 1529 1530 1530 1529 1530 1527 1526 1530 1522 1513 1516 1522 1523 1524 1525 1526 1525 1524 1524 1523 1523 1522 1522 1522 1521
1512 1514 1515 1517 1518 1518 1520 1520 1521 1523 1522 1523 1524 1523 1525 1525 1525 1526 1525 1528 1525 1512 1508 1509 1508 1509 1508 1510 1511 1513 1516 1514 1513 1514 1516 1517 1518 1519 1520 1521 1522 1523 1524 1526 1529 1528 1522 1519 1520 1522 1524 1527 1529 1528 1526 1529 1534 1534 1526 1523 1525 1526 1527 1528 1529 1531 1532 1532 1529 1529 1534 1530 1518 1514 1518 1522 1524 1526 1528 1526 1526 1526 1525 1524 1523 1523 1523 1522
1510 1512 1513 1515 1516 1517 1518 1518 1520 1521 1521 1523 1522 1523 1524 1523 1526 1525 1526 1534 1525 1506 1504 1508 1507 1507 1507 1509 1510 1512 1515 1512 1511 1514 1514 1516 1518 1518 1520 1520 1520 1521 1521 1524 1528 1524 1519 1518 1520 1521 1522 1526 1528 1526 1523 1525 1530 1530 1524 1523 1525 1525 1527 1528 1528 1530 1532 1532 1531 1529 1531 1534 1529 1516 1514 1519 1523 1526 1529 1528 1528 1527 1526 1526 1525 1525 1524 1523
1508 1510 1511 1513 1514 1515 1516 1517 1518 1519 1520 1521 1521 1523 1523 1523 1526 1524 1529 1538 1519 1499 1502 1506 1505 1506 1506 1509 1509 1510 1511 1510 1511 1514 1513 1515 1517 1517 1519 1519 1520 1520 1519 1523 1525 1521 1517 1519 1519 1520 1522 1525 1523 1520 1520 1522 1524 1524 1524 1525 1525 1525 1527 1528 1529 1531 1534 1536 1534 1530 1531 1535 1529 1516 1514 1518 1519 1523 1528 1529 1529 1528 1528 1527 1527 1526 1525 1525
1506 1508 1509 1511 1512 1513 1514 1515 1516 1517 1519 1520 1521 1522 1522 1524 1525 1524 1535 1535 1509 1497 1504 1504 1505 1507 1506 1508 1510 1509 1510 1510 1511 1512 1513 1515 1515 1516 1517 1517 1518 1519 1519 1521 1521 1518 1517 1518 1518 1518 1520 1520 1517 1518 1520 1520 1520 1522 1525 1526 1525 1527 1529 1530 1532 1531 1535 1538 1532 1528 1529 1531 1524 1512 1512 1517 1514 1518 1526 1529 1529 1529 1529 1528 1528 1527 1527 1526
1503 1505 1507 1509 1510 1510 1511 1512 1514 1516 1517 1519 1520 1521 1522 1523 1525 1530 1539 1527 1504 1501 1505 1503 1505 1507 1506 1509 1510 1510 1510 1510 1511 1512 1513 1515 1515 1516 1516 1516 1517 1518 1519 1520 1519 1517 1517 1517 1517 1517 1516 1515 1516 1520 1522 1520 1520 1522 1524 1524 1524 1528 1530 1532 1535 1534 1537 1535 1525 1522 1523 1526 1524 1511 1507 1515 1514 1516 1523 1527 1529 1529 1529 1529 1528 1528 1528 1527
1500 1502 1504 1505 1506 1507 1508 1509 1511 1514 1515 1517 1518 1520 1521 1522 1525 1533 1530 1512 1503 1504 1503 1503 1506 1506 1506 1508 1509 1510 1511 1511 1511 1512 1513 1514 1515 1516 1516 1516 1518 1520 1522 1520 1518 1519 1518 1517 1516 1514 1513 1514 1516 1519 1522 1522 1522 1522 1523 1524 1527 1530 1531 1534 1536 1537 1539 1530 1519 1522 1525 1527 1526 1512 1508 1518 1519 1517 1518 1521 1525 1527 1528 1528 1528 1529 1529 1528
1498 1499 1501 1502 1503 1504 1505 1506 1509 1512 1513 1515 1517 1518 1521 1525 1526 1525 1516 1505 1504 1503 1500 1503 1505 1504 1507 1507 1507 1509 1510 1511 1511 1511 1513 1515 1516 1515 1514 1514 1514 1519 1522 1521 1519 1519 1517 1514 1514 1513 1512 1513 1515 1519 1523 1524 1523 1523 1524 1528 1533 1537 1537 1536 1536 1538 1537 1527 1521 1526 1527 1527 1521 1513 1517 1524 1522 1519 1517 1517 1521 1523 1525 1527 1528 1529 1529 1529
1495 1496 1498 1499 1500 1501 1502 1504 1507 1509 1510 1513 1515 1516 1521 1526 1521 1512 1507 1504 1502 1500 1498 1501 1502 1504 1506 1506 1507 1508 1509 1510 1510 1511 1512 1514 1516 1514 1512 1512 1512 1512 1516 1520 1521 1518 1515 1513 1514 1514 1512 1511 1512 1516 1520 1521 1523 1524 1524 1527 1533 1540 1542 1538 1536 1539 1534 1523 1524 1528 1527 1523 1515 1514 1526 1527 1523 1522 1518 1518 1521 1522 1524 1526 1527 1529 1529 1529
1492 1493 1494 1495 1497 1498 1499 1502 1504 1506 1508 1510 1512 1516 1521 1522 1512 1505 1504 1502 1499 1498 1498 1500 1502 1504 1505 1505 1505 1505 1507 1509 1509 1510 1512 1514 1516 1515 1511 1511 1512 1511 1512 1519 1520 1517 1517 1514 1510 1510 1509 1508 1509 1510 1512 1516 1521 1523 1522 1524 1527 1529 1532 1530 1527 1530 1526 1520 1524 1528 1524 1516 1509 1516 1529 1528 1525 1524 1521 1522 1524 1524 1526 1526 1527 1529 1529 1530
1488 1489 1490 1492 1493 1494 1496 1499 1500 1502 1505 1507 1510 1515 1516 1511 1506 1505 1503 1499 1498 1498 1499 1500 1502 1504 1506 1506 1505 1503 1504 1506 1508 1510 1512 1513 1513 1512 1509 1507 1509 1511 1513 1518 1518 1517 1519 1513 1505 1507 1507 1506 1507 1508 1509 1513 1518 1524 1525 1525 1524 1519 1518 1523 1525 1524 1525 1524 1524 1522 1517 1515 1518 1526 1531 1528 1527 1526 1524 1525 1525 1525 1527 1527 1527 1528 1528 1530
1484 1485 1487 1489 1490 1491 1494 1495 1497 1499 1501 1503 1508 1510 1505 1500 1499 1500 1497 1495 1496 1496 1499 1502 1503 1505 1508 1506 1504 1503 1502 1504 1508 1510 1511 1512 1511 1509 1507 1503 1504 1507 1508 1511 1513 1515 1518 1512 1506 1508 1507 1506 1508 1507 1509 1510 1513 1522 1525 1520 1519 1517 1514 1520 1525 1527 1529 1528 1523 1515 1512 1518 1523 1525 1528 1529 1528 1528 1527 1527 1527 1527 1527 1527 1527 1528 1528 1530
1481 1483 1485 1486 1488 1490 1492 1493 1494 1497 1499 1502 1504 1501 1496 1494 1494 1494 1493 1493 1494 1494 1498 1503 1503 1503 1506 1505 1503 1503 1502 1504 1508 1509 1510 1512 1508 1504 1503 1500 1500 1502 1501 1503 1506 1507 1511 1510 1506 1507 1507 1506 1508 1507 1508 1509 1510 1517 1520 1514 1514 1518 1516 1520 1525 1529 1534 1532 1524 1514 1511 1514 1514 1515 1526 1532 1528 1529 1529 1527 1528 1527 1526 1527 1527 1527 1529 1529
1479 1481 1483 1485 1487 1489 1491 1492 1493 1495 1497 1500 1499 1495 1494 1493 1491 1491 1492 1492 1493 1493 1497 1501 1499 1498 1502 1503 1502 1501 1502 1504 1507 1508 1509 1509 1503 1497 1497 1498 1498 1499 1498 1499 1502 1503 1507 1509 1507 1507 1508 1507 1508 1508 1509 1510 1510 1512 1512 1510 1513 1517 1517 1522 1527 1528 1531 1531 1523 1512 1508 1510 1506 1508 1520 1524 1523 1527 1528 1527 1528 1526 1526 1526 1526 1527 1528 1528
1478 1481 1482 1483 1486 1488 1490 1492 1492 1493 1496 1495 1493 1492 1491 1491 1490 1490 1490 1491 1492 1494 1496 1497 1497 1498 1500 1501 1500 1500 1501 1502 1505 1507 1506 1505 1502 1495 1494 1496 1496 1498 1498 1499 1501 1502 1505 1509 1508 1508 1509 1508 1508 1509 1510 1510 1511 1511 1511 1511 1513 1515 1515 1518 1523 1522 1523 1526 1523 1514 1509 1505 1502 1505 1508 1509 1516 1523 1525 1526 1526 1524 1524 1525 1525 1526 1527 1527
1477 1479 1481 1481 1484 1486 1489 1491 1491 1491 1490 1487 1486 1488 1487 1487 1488 1488 1489 1490 1492 1493 1495 1495 1496 1498 1498 1499 1499 1498 1499 1500 1502 1503 1501 1500 1498 1495 1495 1495 1495 1497 1498 1498 1501 1502 1504 1508 1509 1509 1511 1510 1508 1508 1506 1506 1509 1511 1512 1513 1513 1515 1517 1518 1520 1519 1518 1521 1522 1520 1514 1503 1501 1508 1506 1505 1514 1519 1519 1521 1522 1522 1523 1523 1523 1525 1525 1526
1475 1478 1478 1479 1482 1484 1486 1489 1488 1487 1485 1482 1482 1485 1485 1485 1485 1486 1488 1489 1491 1492 1493 1495 1496 1497 1497 1498 1498 1499 1500 1501 1501 1501 1500 1497 1496 1495 1496 1495 1495 1496 1497 1498 1500 1501 1503 1506 1507 1508 1510 1508 1506 1506 1506 1505 1506 1507 1508 1511 1511 1513 1516 1519 1521 1518 1516 1517 1517 1517 1515 1503 1501 1509 1509 1508 1513 1514 1514 1516 1518 1519 1520 1520 1522 1523 1524 1525
1474 1476 1477 1478 1480 1482 1484 1485 1483 1482 1482 1481 1480 1481 1482 1482 1483 1485 1487 1488 1490 1491 1492 1494 1495 1496 1497 1496 1497 1500 1501 1501 1501 1501 1499 1496 1495 1496 1497 1497 1496 1495 1496 1499 1500 1501 1503 1505 1506 1506 1507 1508 1508 1509 1509 1508 1507 1507 1508 1510 1511 1512 1513 1516 1519 1516 1515 1517 1516 1516 1515 1506 1506 1511 1509 1509 1511 1511 1513 1515 1516 1517 1518 1519 1521 1522 1523 1524
1472 1474 1475 1476 1478 1481 1483 1484 1482 1481 1480 1479 1479 1479 1480 1481 1482 1483 1485 1487 1489 1490 1492 1492 1492 1493 1494 1494 1497 1500 1501 1501 1500 1500 1500 1498 1496 1497 1498 1498 1497 1496 1496 1499 1500 1501 1502 1505 1506 1505 1505 1508 1509 1509 1508 1508 1508 1508 1509 1510 1512 1512 1511 1513 1514 1514 1516 1516 1515 1518 1515 1506 1507 1512 1510 1511 1512 1512 1514 1515 1515 1516 1517 1518 1520 1520 1521 1522
1471 1472 1474 1475 1477 1479 1480 1480 1479 1480 1479 1478 1479 1479 1479 1480 1481 1482 1483 1485 1486 1487 1489 1490 1489 1490 1490 1491 1494 1496 1498 1500 1498 1497 1499 1498 1496 1497 1498 1497 1497 1497 1496 1497 1498 1498 1501 1504 1507 1509 1510 1511 1510 1511 1511 1509 1509 1509 1510 1512 1513 1511 1513 1516 1516 1518 1520 1514 1512 1517 1513 1504 1508 1513 1510 1512 1514 1513 1514 1515 1515 1516 1516 1517 1518 1519 1520 1520
1469 1471 1473 1474 1476 1478 1477 1475 1476 1478 1478 1478 1480 1479 1479 1479 1478 1479 1481 1482 1482 1484 1486 1486 1486 1486 1487 1489 1492 1493 1494 1496 1495 1495 1496 1497 1497 1497 1497 1496 1496 1496 1496 1497 1496 1496 1500 1503 1504 1506 1510 1510 1509 1511 1512 1508 1508 1511 1513 1513 1513 1512 1513 1515 1516 1520 1519 1514 1513 1516 1510 1506 1510 1513 1511 1512 1515 1514 1514 1514 1515 1515 1516 1516 1516 1517 1518 1518
1467 1469 1471 1474 1475 1476 1475 1474 1475 1476 1476 1478 1479 1478 1478 1478 1476 1476 1478 1479 1480 1481 1483 1483 1483 1485 1487 1488 1491 1492 1492 1492 1493 1493 1493 1496 1498 1498 1497 1496 1496 1496 1496 1497 1496 1498 1502 1505 1503 1500 1501 1501 1502 1506 1509 1508 1507 1509 1512 1511 1512 1513 1513 1513 1517 1520 1518 1517 1517 1512 1508 1509 1510 1510 1511 1512 1513 1514 1513 1513 1513 1513 1513 1514 1514 1514 1515 1516
1464 1464 1466 1470 1473 1474 1474 1474 1475 1475 1474 1476 1476 1474 1474 1475 1475 1475 1476 1476 1477 1479 1481 1481 1482 1483 1485 1486 1489 1490 1489 1490 1491 1492 1493 1496 1497 1498 1497 1496 1496 1496 1496 1496 1497 1499 1503 1504 1503 1503 1502 1501 1503 1506 1508 1508 1508 1508 1510 1509 1508 1511 1514 1515 1518 1518 1515 1517 1514 1505 1506 1511 1506 1504 1509 1510 1510 1512 1511 1510 1510 1510 1510 1510 1510 1512 1513 1514
1462 1461 1461 1464 1467 1468 1469 1469 1470 1471 1472 1473 1473 1471 1470 1471 1473 1474 1474 1474 1475 1476 1479 1480 1479 1479 1480 1482 1485 1487 1488 1490 1490 1490 1493 1495 1497 1498 1498 1497 1497 1497 1497 1498 1498 1499 1503 1503 1504 1506 1505 1504 1507 1508 1508 1510 1510 1509 1509 1507 1505 1508 1513 1516 1516 1513 1511 1512 1508 1502 1506 1509 1504 1502 1506 1508 1508 1508 1507 1507 1507 1507 1507 1507 1508 1509 1510 1511
1459 1459 1459 1461 1461 1461 1461 1462 1465 1468 1469 1471 1472 1470 1468 1469 1469 1469 1470 1473 1475 1474 1475 1476 1476 1477 1478 1479 1481 1482 1484 1487 1488 1489 1490 1493 1495 1496 1497 1498 1498 1497 1498 1499 1499 1500 1503 1504 1506 1507 1505 1504 1508 1510 1510 1511 1511 1510 1508 1506 1506 1508 1512 1513 1511 1509 1509 1510 1506 1504 1508 1506 1500 1501 1503 1504 1504 1504 1504 1504 1503 1503 1504 1504 1505 1506 1507 1508
1457 1457 1458 1459 1459 1459 1460 1461 1463 1465 1466 1468 1468 1466 1466 1467 1467 1467 1468 1469 1471 1471 1471 1472 1473 1474 1477 1478 1478 1478 1477 1478 1481 1483 1486 1489 1491 1493 1494 1494 1495 1498 1499 1500 1501 1502 1502 1505 1508 1509 1507 1508 1511 1511 1510 1511 1512 1510 1507 1505 1506 1510 1511 1509 1508 1508 1511 1511 1507 1507 1510 1505 1497 1498 1501 1501 1501 1502 1502 1502 1501 1501 1502 1502 1503 1504 1505 1507
1455 1455 1456 1458 1458 1458 1459 1460 1461 1464 1464 1464 1462 1462 1464 1465 1464 1465 1466 1465 1466 1467 1467 1468 1470 1473 1476 1477 1476 1475 1475 1476 1477 1478 1480 1482 1483 1486 1488 1489 1492 1496 1499 1500 1501 1501 1502 1507 1509 1510 1510 1511 1513 1514 1511 1511 1514 1512 1506 1503 1506 1509 1505 1501 1502 1505 1506 1507 1507 1510 1511 1503 1495 1495 1499 1499 1499 1500 1499 1499 1499 1499 1500 1500 1501 1502 1504 1505
1453 1454 1455 1457 1458 1457 1457 1458 1460 1461 1459 1456 1457 1459 1461 1462 1462 1464 1466 1465 1464 1466 1466 1466 1468 1471 1474 1475 1474 1473 1474 1476 1476 1478 1480 1480 1481 1482 1484 1486 1489 1492 1496 1499 1501 1501 1503 1504 1506 1510 1511 1513 1518 1518 1513 1515 1519 1511 1498 1494 1499 1501 1500 1498 1499 1499 1499 1501 1505 1506 1502 1496 1494 1496 1497 1497 1497 1498 1497 1497 1497 1497 1498 1499 1500 1501 1502 1504